www.pogodaiklimat.ru
ПОГОДА в Балтиморе
Время
и дата
10:54 19.11
11:54 19.11
12:54 19.11
13:54 19.11
14:54 19.11
15:54 19.11
16:54 19.11
17:54 19.11
18:54 19.11
19:54 19.11
20:54 19.11
21:54 19.11
22:54 19.11
23:54 19.11
00:54 20.11
01:54 20.11
02:54 20.11
03:54 20.11
04:54 20.11
05:54 20.11
06:54 20.11
07:54 20.11
08:54 20.11
09:54 20.11
10:54 20.11
11:54 20.11
12:54 20.11
13:54 20.11
14:54 20.11
15:54 20.11
16:54 20.11
22:54 20.11
23:54 20.11
00:54 21.11
01:54 21.11
02:54 21.11
03:54 21.11
04:54 21.11
05:54 21.11
06:54 21.11
07:54 21.11
08:54 21.11
09:54 21.11
10:54 21.11
11:54 21.11
12:54 21.11
13:54 01.12
14:54 01.12
Ветер
(напр.,м/с)
Видим. Явления Облачность Т
(С)
Тd
(С)
f
(%)
Тe
(С)
Тes
(С)
Комфортность P
(гПа)
Po
(гПа)
Тmin
(С)
Tmax
(С)
R
(мм)
R24
(мм)
S
(см)
н/о н/о +5.6 -8.9 34 +6 +6 1025.2 1024.6
н/о н/о +6.1 -9.4 32 +6 +6 1024.0 1023.2
н/о н/о +7.2 -9.4 30 +7 +7 1022.5 1021.8 +1.1 +7.2
н/о н/о +7.2 -8.9 31 +7 +7 1021.7 1020.8
н/о н/о +8.3 -8.9 29 +8 +8 1020.9 1020.2
н/о н/о +7.8 -7.2 34 +8 +8 1020.2 1019.5
н/о н/о +7.2 -7.2 35 +7 +7 1019.9 1019.1
н/о н/о +5.6 -6.7 41 +5 +5 1019.3 1018.5
н/о н/о +6.1 -6.7 39 +6 +6 1019.2 1018.5 +5.6 +8.3
н/о н/о +5.0 -3.9 53 +5 +5 1018.8 1018.1
н/о н/о +3.9 -4.4 55 +3 +3 1018.3 1017.4
н/о н/о +3.9 -4.4 55 +3 +3 1018.0 1017.1
н/о н/о +2.8 -5.6 54 +2 +2 1017.4 1016.8
н/о н/о +3.3 -7.2 46 +3 +3 1016.9 1016.1
н/о н/о +2.8 -7.2 48 +2 +2 1017.1 1016.4 +2.8 +6.1
н/о н/о +3.9 -11.1 33 +4 +4 1017.9 1017.1
н/о н/о +3.9 -11.7 31 +4 +4 1018.6 1017.8
н/о н/о +2.8 -11.7 33 +3 +3 1019.3 1018.5
н/о н/о +2.8 -12.2 32 +3 +3 1019.9 1019.1
н/о н/о +1.7 -12.2 35 +2 +2 1020.7 1019.8
н/о н/о +1.7 -11.1 38 +2 +2 1021.9 1021.2 +1.7 +3.9
н/о н/о +1.1 -13.9 32 +1 +1 1023.5 1022.9
н/о н/о +0.6 -16.7 26 +1 +1 1025.1 1024.2
н/о н/о +0.6 -16.1 27 +1 +1 1025.5 1024.6
н/о н/о +1.7 -16.1 25 +2 +2 1026.1 1025.2
н/о н/о +2.2 -16.1 24 +2 +2 1025.3 1024.6
н/о н/о +2.8 -16.1 23 +3 +3 1024.9 1024.2 +2.8
н/о н/о +2.8 -16.1 23 +3 +3 1025.1 1024.2
н/о н/о +3.3 -16.7 21 +4 +4 1025.7 1024.9
н/о н/о +2.8 -16.1 23 +3 +3 1026.3 1025.6
н/о н/о +2.2 -15.6 25 +2 +2 1026.9 1026.2
н/о н/о 0.0 -13.9 34 0 0 1030.4 1029.6
н/о н/о -0.6 -12.8 39 -1 -1 1031.0 1030.3
н/о н/о -0.6 -13.3 38 -1 -1 1031.0 1030.3 -0.6 +1.1
н/о н/о -1.1 -11.7 44 -1 -1 1031.5 1030.6
н/о н/о -1.7 -12.2 45 -2 -2 1032.3 1031.7
н/о н/о -2.2 -12.2 46 -3 -3 1032.5 1031.7
н/о н/о -2.2 -12.8 44 -3 -3 1033.0 1032.3
н/о н/о -2.8 -12.8 46 -3 -3 1033.0 1032.3
н/о н/о -2.2 -12.8 44 -3 -3 1033.4 1032.7 -3.3 -0.6
н/о н/о -1.7 -12.8 42 -2 -2 1033.3 1032.7
н/о н/о +0.6 -13.3 34 +1 +1 1033.3 1032.7
н/о н/о +2.8 -13.3 29 +3 +3 1033.3 1032.7
н/о н/о +4.4 -12.8 27 +5 +5 1032.5 1031.7
н/о н/о +5.6 -10.6 30 +6 +6 1031.0 1030.3
н/о н/о +7.2 -9.4 30 +7 +7 1029.6 1028.9 -2.2 +7.2
н/о н/о +6.7 -8.9 32 +7 +7 1030.6 1030.0
н/о н/о +6.7 -9.4 31 +7 +7 1030.3 1029.6
Местоположение метеостанции Inner Harbor: широта 39.2833 долгота -76.6167 высота над уровнем моря 6 м.
В архиве по умолчанию представлена погода в Балтиморе за последние 1-2 суток. Обновление информации о фактической погоде в базе происходит ежечасно! Архивные данные за месяц целиком и за предыдущие месяцы Вы можете получить, выбрав интересующий диапазон дат из раскрывающегося списка и нажав кнопку "Ввод!".
Внимание! Архив погоды МЕТАР в базе сайта по станциям, не включенным в климатический монитор, хранится не более 60 дней. Нет смысла пытаться выбрать более раннюю дату.
*Определитесь, кто Вы:
Внимание! Время в таблицах - местное (без учета летнего времени). Для получения всемирного времени необходимо вычесть поправку, которая равна -5 ч.
Смотрите также архив погоды в соседних городах и на ближайших метеорологических станциях:
Партнеры нашего сайта:      
Пояснения к столбцам:
  • Ветер - указаны скорость ветра в м/с - средняя за 10 мин, порывы в срок и между сроками (в фигурных скобках) и направление, откуда дует ветер: С - северный,
  • СВ - северо-восточный, В - восточный, ЮВ - юго-восточный, Ю - южный, ЮЗ - юго-западный, З - западный, СЗ - северо-западный.
  • Видимость - горизонтальная дальность видимости в метрах или километрах. При видимости от 1 до 10 км при отсутствии осадков обычно наблюдается дымка, при ухудшении видимости до 1 км и менее - туман. В сухую погоду видимость может ухудшаться дымом, пылью или мглою.
  • Явления - указаны атмосферные явления, наблюдавшиеся в срок или в последний час перед сроком; фигурными скобками обозначены явления, наблюдавшиеся между сроками (за 1-3 часа до срока); квадратными скобками обозначены град или гололедные отложения с указанием их диаметра в мм.
  • Облачность - указаны через наклонную черту общая и нижняя облачность в баллах и высота нижней границы облаков в метрах; квадратными скобками обозначены формы облаков: Ci - перистые, Cs - перисто-слоистые, Cc - перисто-кучевые, Ac - высококучевые, As - высокослоистые, Sc - слоисто-кучевые, Ns - слоисто-дождевые, Cu - кучевые, Cb - кучево-дождевые. Подробнее классификацию облаков см. в Атласе облаков (PDF).
  • T - Температура воздуха - температура, измеренная на высоте 2 м над землей.
  • Td - Температура точки росы - температура, при понижении до которой содержащийся в воздухе водяной пар достигнет насыщения.
  • f - Относительная влажность воздуха - влажноcть воздуха, измеренная на высоте 2 м над землей.
  • Te - Эффективная температура - температура, которую ощущает одетый по сезону человек в тени. Характеристика душности погоды. При расчете учитывается влияние влажности воздуха и скорости ветра на теплоощущения человека.
  • Tes - Эффективная температура на солнце - температура, которую ощущает человек, с поправкой на солнечный нагрев. Характеристика знойности погоды. Зависит от высоты солнца над горизонтом, облачности и скорости ветра. Ночью, в пасмурную погоду, а также при ветре 12 м/с и более поправка равна нулю.
  • P - Атмосферное давление - приведенное к уровню моря атмосферное давление.
  • Po - Атмосферное давление - измеренное на уровне метеостанции атмосферное давление.
  • Tmin - Минимальная температура - минимум температуры воздуха на высоте 2 м над землей.
  • Tmax - Максимальная температура - максимум температуры воздуха на высоте 2 м над землей.
  • R - Количество осадков - Количество выпавших осадков за период времени, мм. При наведении курсора мыши на число - период времени, за который выпало указанное количество осадков.
  • R24 - Количество осадков - Количество выпавших осадков за 24 часа, мм.
  • S - Снежный покров - Высота снежного покрова, см. При наведении курсора мыши на число - состояние снежного покрова и степень покрытия местности в баллах.